Location: Ward Pound Ridge Reservation
(41.2500°N, 73.6000°W)
Time: 04:53:06
(UTC-04:00)

N. Korean satellite - Pass Details

Date: 07 October 2017
Orbit: 459 x 517 km, 97.2° (Epoch: 19 October)

Event Time Altitude Azimuth Distance (km) Brightness Sun altitude
Rises 18:58:29 0° 168° (SSE) 2,581 10.1 -6.9°
Reaches altitude 10° 19:00:34 10° 169° (S) 1,693 9.2 -7.3°
Maximum altitude 19:04:13 84° 258° (WSW) 500 6.7 -8.0°
Drops below altitude 10° 19:07:50 10° 347° (NNW) 1,674 9.5 -8.7°
Sets 19:09:53 0° 348° (NNW) 2,549 10.4 -9.1°
